QTR60L OTHH-EGCC

Flight info

Callsign QTR60L
Flight time N/A
Altitude 34000
Route ULIKA M430 KSA T503 ASVUL/N0493F360 T503 OVANO L768 FIRAS R655 KTN R785 NIKAS L619 VESAR UN135 IMR UN127 RIKSO DCT TALAS/N0477F380 DCT MAVAR DCT ULPIN DCT MONFA DCT SOTOV DCT XEBIX DCT USUDO DCT LIRSU DCT SPI DCT DENUT L610 LAM UN57 WELIN T420 ELVOS
Aircraft B77W/H-SDE1E2E3FGHIJ2J3J4J5M1RWXY/LB1D1

Departure

Time 2026-05-05 05:43
Airport Hamad International Airport (OTHH)

Arrival

Time N/A
Airport Manchester Airport (EGCC)
Time Latitude Longitude Altitude Speed Heading
2026-05-05 05:23 25.26534 51.61297 15 ft 2 kts 248°
2026-05-05 05:24 25.26539 51.61312 15 ft 2 kts 248°
2026-05-05 05:24 25.26545 51.61327 15 ft 2 kts 252°
2026-05-05 05:24 25.26547 51.61343 15 ft 2 kts 272°
2026-05-05 05:24 25.26545 51.61359 15 ft 2 kts 288°
2026-05-05 05:25 25.26539 51.61375 15 ft 2 kts 303°
2026-05-05 05:25 25.26530 51.61387 15 ft 2 kts 319°
2026-05-05 05:25 25.26517 51.61397 15 ft 1 kts 335°
2026-05-05 05:25 25.26513 51.61399 15 ft 0 kts 338°
2026-05-05 05:29 25.26518 51.61397 15 ft 1 kts 338°
2026-05-05 05:29 25.26535 51.61389 15 ft 3 kts 338°
2026-05-05 05:29 25.26565 51.61376 15 ft 5 kts 338°
2026-05-05 05:29 25.26605 51.61358 15 ft 6 kts 338°
2026-05-05 05:30 25.26654 51.61337 15 ft 8 kts 338°
2026-05-05 05:30 25.26710 51.61323 15 ft 8 kts
2026-05-05 05:30 25.26774 51.61344 15 ft 10 kts 22°
2026-05-05 05:30 25.26841 51.61374 15 ft 10 kts 23°
2026-05-05 05:31 25.26914 51.61408 15 ft 11 kts 22°
2026-05-05 05:31 25.26992 51.61443 15 ft 12 kts 22°
2026-05-05 05:31 25.27034 51.61499 15 ft 9 kts 85°
2026-05-05 05:31 25.27044 51.61576 15 ft 10 kts 70°
2026-05-05 05:32 25.27074 51.61653 15 ft 10 kts 48°
2026-05-05 05:32 25.27149 51.61659 15 ft 11 kts 340°
2026-05-05 05:32 25.27228 51.61624 15 ft 12 kts 338°
2026-05-05 05:32 25.27310 51.61588 15 ft 13 kts 338°
2026-05-05 05:33 25.27395 51.61550 15 ft 13 kts 339°
2026-05-05 05:33 25.27423 51.61482 15 ft 11 kts 257°
2026-05-05 05:33 25.27395 51.61398 15 ft 11 kts 248°
2026-05-05 05:33 25.27362 51.61311 15 ft 12 kts 248°
2026-05-05 05:34 25.27329 51.61222 15 ft 12 kts 248°
2026-05-05 05:34 25.27296 51.61132 16 ft 12 kts 248°
2026-05-05 05:34 25.27265 51.61047 18 ft 11 kts 249°
2026-05-05 05:34 25.27238 51.60970 20 ft 10 kts 249°
2026-05-05 05:35 25.27214 51.60900 21 ft 9 kts 248°
2026-05-05 05:35 25.27186 51.60824 22 ft 12 kts 248°
2026-05-05 05:35 25.27152 51.60733 23 ft 13 kts 248°
2026-05-05 05:35 25.27116 51.60633 25 ft 14 kts 248°
2026-05-05 05:36 25.27078 51.60530 27 ft 13 kts 248°
2026-05-05 05:36 25.27048 51.60445 28 ft 11 kts 249°
2026-05-05 05:36 25.27021 51.60370 28 ft 10 kts 249°
2026-05-05 05:36 25.26990 51.60283 28 ft 13 kts 248°
2026-05-05 05:37 25.26957 51.60194 28 ft 11 kts 248°
2026-05-05 05:37 25.26894 51.60152 28 ft 13 kts 169°
2026-05-05 05:37 25.26796 51.60189 27 ft 16 kts 158°
2026-05-05 05:37 25.26678 51.60241 25 ft 19 kts 158°
2026-05-05 05:38 25.26557 51.60294 24 ft 17 kts 158°
2026-05-05 05:38 25.26448 51.60343 24 ft 15 kts 158°
2026-05-05 05:38 25.26349 51.60387 24 ft 15 kts 158°
2026-05-05 05:38 25.26245 51.60433 23 ft 16 kts 158°
2026-05-05 05:39 25.26130 51.60484 21 ft 18 kts 158°
2026-05-05 05:39 25.26008 51.60538 21 ft 19 kts 158°
2026-05-05 05:39 25.25879 51.60595 20 ft 19 kts 159°
2026-05-05 05:39 25.25758 51.60647 19 ft 17 kts 159°
2026-05-05 05:40 25.25660 51.60691 18 ft 8 kts 158°
2026-05-05 05:40 25.25612 51.60674 18 ft 7 kts 228°
2026-05-05 05:40 25.25588 51.60632 18 ft 5 kts 247°
2026-05-05 05:40 25.25575 51.60597 19 ft 4 kts 248°
2026-05-05 05:41 25.25564 51.60566 19 ft 3 kts 259°
2026-05-05 05:41 25.25566 51.60550 20 ft 0 kts 296°
2026-05-05 05:41 25.25567 51.60549 20 ft 0 kts 298°
2026-05-05 05:41 25.25582 51.60529 20 ft 7 kts 320°
2026-05-05 05:42 25.25753 51.60447 23 ft 57 kts 338°
2026-05-05 05:42 25.26350 51.60183 25 ft 124 kts 338°
2026-05-05 05:42 25.27347 51.59741 35 ft 179 kts 336°
2026-05-05 05:42 25.28575 51.59212 502 ft 190 kts 339°
2026-05-05 05:43 25.29806 51.58667 1251 ft 195 kts 339°
2026-05-05 05:43 25.31078 51.58091 1669 ft 204 kts 340°
2026-05-05 05:43 25.32441 51.57491 1970 ft 220 kts 340°
2026-05-05 05:43 25.33939 51.56829 2297 ft 237 kts 340°
2026-05-05 05:44 25.35535 51.56124 2642 ft 254 kts 340°
2026-05-05 05:44 25.37187 51.55391 3220 ft 259 kts 340°
2026-05-05 05:44 25.38854 51.54652 3886 ft 260 kts 340°
2026-05-05 05:44 25.40546 51.53902 4549 ft 261 kts 340°
2026-05-05 05:45 25.42235 51.53153 5194 ft 263 kts 340°
2026-05-05 05:45 25.43936 51.52398 5818 ft 266 kts 339°
2026-05-05 05:45 25.45655 51.51631 6477 ft 267 kts 337°
2026-05-05 05:45 25.47208 51.50472 6886 ft 273 kts 315°
2026-05-05 05:46 25.48209 51.48644 7038 ft 286 kts 288°
2026-05-05 05:46 25.48392 51.46487 7780 ft 284 kts 271°
2026-05-05 05:46 25.48288 51.44312 8526 ft 282 kts 270°
2026-05-05 05:46 25.48174 51.42172 9096 ft 283 kts 270°
2026-05-05 05:47 25.48069 51.39988 9745 ft 284 kts 270°
2026-05-05 05:47 25.47950 51.37783 10248 ft 290 kts 267°
2026-05-05 05:47 25.47589 51.35545 10477 ft 308 kts 258°
2026-05-05 05:47 25.46859 51.33215 10732 ft 328 kts 249°
2026-05-05 05:48 25.45727 51.30943 11028 ft 346 kts 239°
2026-05-05 05:48 25.44169 51.28825 11294 ft 364 kts 228°
2026-05-05 05:48 25.42154 51.26957 11654 ft 381 kts 217°
2026-05-05 05:48 25.39983 51.25629 11985 ft 395 kts 205°
2026-05-05 05:49 25.37247 51.24698 12581 ft 405 kts 193°
2026-05-05 05:49 25.34426 51.24446 13267 ft 412 kts 180°
2026-05-05 05:49 25.31535 51.24695 14000 ft 416 kts 176°
2026-05-05 05:49 25.28658 51.25034 14834 ft 418 kts 171°
2026-05-05 05:50 25.25822 51.25847 15645 ft 422 kts 163°
2026-05-05 05:50 25.22960 51.26622 16444 ft 423 kts 172°
2026-05-05 05:50 25.20495 51.26865 17061 ft 425 kts 180°
2026-05-05 05:50 25.17565 51.26657 17777 ft 427 kts 189°
2026-05-05 05:51 25.14648 51.25897 18472 ft 430 kts 200°
2026-05-05 05:51 25.11869 51.24589 19170 ft 432 kts 210°
2026-05-05 05:51 25.09352 51.22794 19859 ft 433 kts 219°
2026-05-05 05:51 25.07140 51.20543 20549 ft 434 kts 229°
2026-05-05 05:52 25.05313 51.17924 21187 ft 435 kts 239°
2026-05-05 05:52 25.03898 51.14966 21821 ft 437 kts 248°
2026-05-05 05:52 25.02905 51.11827 22464 ft 439 kts 256°
2026-05-05 05:52 25.02368 51.08513 23070 ft 441 kts 265°
2026-05-05 05:53 25.02227 51.05139 23706 ft 443 kts 268°
2026-05-05 05:53 25.02164 51.01736 24334 ft 445 kts 269°
2026-05-05 05:53 25.02169 50.98350 24928 ft 447 kts 273°
2026-05-05 05:53 25.02569 50.94939 25508 ft 450 kts 281°
2026-05-05 05:54 25.03431 50.91613 26071 ft 453 kts 289°
2026-05-05 05:54 25.04739 50.88443 26581 ft 459 kts 296°
2026-05-05 05:54 25.06467 50.85519 27079 ft 464 kts 304°
2026-05-05 05:54 25.08663 50.82812 27588 ft 471 kts 312°
2026-05-05 05:55 25.11057 50.80344 28137 ft 473 kts 313°
2026-05-05 05:55 25.13455 50.77900 28627 ft 475 kts 313°
2026-05-05 05:55 25.15904 50.75388 29062 ft 479 kts 313°
2026-05-05 05:55 25.18340 50.72876 29613 ft 480 kts 312°
2026-05-05 05:56 25.20693 50.70265 30272 ft 475 kts 306°
2026-05-05 05:56 25.22644 50.67376 30977 ft 466 kts 298°
2026-05-05 05:56 25.24168 50.64262 31626 ft 459 kts 290°
2026-05-05 05:56 25.25253 50.61003 32213 ft 453 kts 282°
2026-05-05 05:57 25.25905 50.57659 32743 ft 448 kts 275°
2026-05-05 05:57 25.26128 50.54239 33298 ft 445 kts 268°
2026-05-05 05:57 25.26087 50.50834 33765 ft 444 kts 267°
2026-05-05 05:57 25.26113 50.47446 33793 ft 445 kts 269°
2026-05-05 05:58 25.26266 50.40677 33804 ft 440 kts 269°
2026-05-05 05:58 25.26413 50.33883 33809 ft 441 kts 269°
2026-05-05 05:59 25.26553 50.27150 33811 ft 440 kts 269°
2026-05-05 05:59 25.26687 50.20410 33817 ft 440 kts 269°
2026-05-05 06:00 25.26817 50.13661 33823 ft 439 kts 269°
2026-05-05 06:00 25.26945 50.06890 33842 ft 440 kts 269°
2026-05-05 06:01 25.27068 50.00182 33850 ft 439 kts 269°
2026-05-05 06:01 25.27189 49.93435 33850 ft 440 kts 269°
2026-05-05 06:02 25.27306 49.86680 33847 ft 438 kts 269°
2026-05-05 06:02 25.27419 49.79995 33848 ft 439 kts 269°
2026-05-05 06:03 25.27530 49.73258 33845 ft 437 kts 268°
2026-05-05 06:03 25.27638 49.66578 33846 ft 437 kts 269°
2026-05-05 06:04 25.27742 49.59887 33845 ft 436 kts 268°
2026-05-05 06:04 25.27844 49.53175 33844 ft 436 kts 269°
2026-05-05 06:05 25.27745 49.46531 33852 ft 434 kts 263°
2026-05-05 06:05 25.27154 49.39914 33850 ft 433 kts 263°
2026-05-05 06:06 25.26553 49.33312 33868 ft 432 kts 262°
2026-05-05 06:06 25.25951 49.26718 33880 ft 433 kts 262°
2026-05-05 06:07 25.25344 49.20100 33883 ft 433 kts 262°
2026-05-05 06:07 25.24740 49.13532 33882 ft 431 kts 263°
2026-05-05 06:08 25.24131 49.06950 33879 ft 433 kts 263°
2026-05-05 06:08 25.23517 49.00339 33880 ft 432 kts 262°
2026-05-05 06:09 25.22902 48.93742 33882 ft 433 kts 262°
2026-05-05 06:09 25.22283 48.87139 33887 ft 432 kts 262°
2026-05-05 06:10 25.21661 48.80544 33893 ft 434 kts 262°
2026-05-05 06:10 25.21041 48.73990 33893 ft 431 kts 262°
2026-05-05 06:11 25.20412 48.67380 33902 ft 433 kts 262°
2026-05-05 06:11 25.19782 48.60791 33898 ft 431 kts 262°
2026-05-05 06:12 25.19150 48.54204 33896 ft 432 kts 262°
2026-05-05 06:12 25.18514 48.47611 33884 ft 431 kts 262°
2026-05-05 06:13 25.17880 48.41074 33885 ft 430 kts 262°
2026-05-05 06:13 25.17239 48.34494 33895 ft 430 kts 262°
2026-05-05 06:14 25.16600 48.27964 33913 ft 430 kts 262°
2026-05-05 06:14 25.15957 48.21422 33919 ft 429 kts 262°
2026-05-05 06:15 25.15309 48.14853 33923 ft 428 kts 262°
2026-05-05 06:15 25.14660 48.08320 33920 ft 429 kts 262°
2026-05-05 06:16 25.14011 48.01819 33930 ft 427 kts 262°
2026-05-05 06:16 25.13362 47.95351 33929 ft 428 kts 262°
2026-05-05 06:17 25.12702 47.88793 33932 ft 430 kts 262°
2026-05-05 06:17 25.12041 47.82263 33937 ft 428 kts 262°
2026-05-05 06:18 25.11281 47.75766 33941 ft 428 kts 261°
2026-05-05 06:18 25.10501 47.69212 33943 ft 430 kts 261°
2026-05-05 06:19 25.09730 47.62728 33947 ft 427 kts 261°
2026-05-05 06:19 25.08951 47.56195 33956 ft 429 kts 261°
2026-05-05 06:20 25.08175 47.49695 33956 ft 426 kts 261°
2026-05-05 06:20 25.07399 47.43221 33963 ft 429 kts 261°
2026-05-05 06:21 25.06615 47.36709 33967 ft 427 kts 261°
2026-05-05 06:21 25.05832 47.30218 33988 ft 428 kts 261°
2026-05-05 06:22 25.05046 47.23732 33995 ft 427 kts 261°
2026-05-05 06:22 25.04256 47.17239 34006 ft 428 kts 261°
2026-05-05 06:23 25.03464 47.10754 34010 ft 425 kts 261°
2026-05-05 06:23 25.02673 47.04299 34021 ft 426 kts 261°
2026-05-05 06:24 25.01876 46.97823 34014 ft 426 kts 261°
2026-05-05 06:24 25.01080 46.91370 34010 ft 425 kts 261°
2026-05-05 06:25 25.00276 46.84882 33998 ft 427 kts 261°
2026-05-05 06:25 24.99473 46.78424 33986 ft 428 kts 261°
2026-05-05 06:26 24.99254 46.71870 33975 ft 431 kts 274°
2026-05-05 06:26 25.00987 46.65533 33965 ft 444 kts 291°
2026-05-05 06:27 25.07077 46.57548 33986 ft 463 kts 310°
2026-05-05 06:28 25.11804 46.52775 33982 ft 463 kts 310°
2026-05-05 06:28 25.16544 46.47959 33983 ft 462 kts 310°
2026-05-05 06:29 25.21259 46.43147 33988 ft 464 kts 310°
2026-05-05 06:29 25.25973 46.38325 33987 ft 461 kts 310°
2026-05-05 06:30 25.30682 46.33498 33992 ft 460 kts 309°
2026-05-05 06:30 25.35389 46.28664 34001 ft 461 kts 309°
2026-05-05 06:31 25.40066 46.23857 33996 ft 459 kts 309°
2026-05-05 06:31 25.44722 46.19063 33995 ft 460 kts 309°
2026-05-05 06:32 25.49391 46.14251 33993 ft 460 kts 309°
2026-05-05 06:32 25.54125 46.09368 33988 ft 459 kts 309°
2026-05-05 06:33 25.58812 46.04526 33983 ft 460 kts 308°
2026-05-05 06:33 25.63493 45.99685 33979 ft 460 kts 309°
2026-05-05 06:34 25.68170 45.94843 33986 ft 459 kts 309°
2026-05-05 06:34 25.72818 45.90025 33989 ft 460 kts 309°
2026-05-05 06:35 25.77435 45.85235 33994 ft 457 kts 308°
2026-05-05 06:35 25.82133 45.80354 33997 ft 459 kts 308°
2026-05-05 06:36 25.86793 45.75507 34002 ft 460 kts 308°
2026-05-05 06:36 25.91450 45.70658 33995 ft 458 kts 308°
2026-05-05 06:37 25.96086 45.65824 33995 ft 458 kts 308°
2026-05-05 06:37 26.00767 45.60938 33990 ft 458 kts 308°
2026-05-05 06:38 26.05388 45.56108 33986 ft 457 kts 308°
2026-05-05 06:38 26.10054 45.51225 33976 ft 456 kts 308°
2026-05-05 06:39 26.14659 45.46400 33961 ft 459 kts 308°
2026-05-05 06:39 26.19304 45.41532 33960 ft 455 kts 308°
2026-05-05 06:40 26.23926 45.36682 33964 ft 455 kts 308°
2026-05-05 06:40 26.28520 45.31855 33981 ft 455 kts 307°
2026-05-05 06:41 26.33098 45.27048 33978 ft 455 kts 307°
2026-05-05 06:41 26.37673 45.22253 33979 ft 455 kts 307°
2026-05-05 06:42 26.42256 45.17442 33974 ft 453 kts 307°
2026-05-05 06:42 26.46843 45.12621 33972 ft 454 kts 307°
2026-05-05 06:43 26.51383 45.07845 33973 ft 453 kts 307°
2026-05-05 06:43 26.55920 45.03067 33974 ft 451 kts 307°
2026-05-05 06:44 26.60461 44.98276 33974 ft 453 kts 307°
2026-05-05 06:44 26.65021 44.93467 33970 ft 449 kts 307°
2026-05-05 06:45 26.69528 44.88702 33972 ft 454 kts 307°
2026-05-05 06:45 26.74025 44.83950 33970 ft 450 kts 307°
2026-05-05 06:46 26.78457 44.79256 33958 ft 448 kts 307°
2026-05-05 06:46 26.82901 44.74533 33957 ft 450 kts 307°
2026-05-05 06:47 26.87394 44.69755 33956 ft 451 kts 307°
2026-05-05 06:47 26.91926 44.64933 33956 ft 448 kts 307°
2026-05-05 06:48 26.96463 44.60096 33953 ft 449 kts 307°
2026-05-05 06:48 27.00974 44.55281 33950 ft 449 kts 307°
2026-05-05 06:49 27.05444 44.50497 33948 ft 450 kts 307°
2026-05-05 06:49 27.09945 44.45678 33951 ft 449 kts 307°
2026-05-05 06:50 27.14468 44.40827 33940 ft 448 kts 307°
2026-05-05 06:50 27.18976 44.35988 33941 ft 451 kts 306°
2026-05-05 06:51 27.23503 44.31135 33965 ft 448 kts 306°
2026-05-05 06:51 27.28023 44.26281 33971 ft 449 kts 306°
2026-05-05 06:52 27.32558 44.21406 33969 ft 449 kts 306°
2026-05-05 06:52 27.37073 44.16546 33966 ft 448 kts 306°
2026-05-05 06:53 27.41565 44.11706 33969 ft 448 kts 306°
2026-05-05 06:53 27.46100 44.06812 33968 ft 448 kts 306°
2026-05-05 06:54 27.50613 44.01934 33972 ft 451 kts 306°
2026-05-05 06:54 27.55119 43.97062 33973 ft 452 kts 306°
2026-05-05 06:55 27.59648 43.92159 33971 ft 449 kts 306°
2026-05-05 06:55 27.64165 43.87261 33965 ft 451 kts 306°
2026-05-05 06:56 27.68658 43.82386 33965 ft 448 kts 306°
2026-05-05 06:56 27.73159 43.77494 33971 ft 448 kts 306°
2026-05-05 06:57 27.77642 43.72614 33972 ft 450 kts 306°
2026-05-05 06:57 27.82147 43.67707 33972 ft 449 kts 306°
2026-05-05 06:58 27.86593 43.62738 33977 ft 446 kts 303°
2026-05-05 06:58 27.90794 43.57638 33977 ft 443 kts 303°
2026-05-05 06:59 27.95058 43.52464 33973 ft 445 kts 303°
2026-05-05 06:59 27.99256 43.47385 33982 ft 444 kts 303°
2026-05-05 07:00 28.03476 43.42279 33982 ft 443 kts 303°
2026-05-05 07:00 28.07703 43.37161 33994 ft 443 kts 303°
2026-05-05 07:01 28.11900 43.32076 34003 ft 442 kts 303°
2026-05-05 07:01 28.16099 43.26984 34011 ft 441 kts 303°
2026-05-05 07:02 28.20302 43.21881 34009 ft 443 kts 303°
2026-05-05 07:02 28.24496 43.16783 34015 ft 440 kts 302°
2026-05-05 07:03 28.28714 43.11647 34009 ft 443 kts 302°
2026-05-05 07:03 28.32869 43.06588 34008 ft 437 kts 302°
2026-05-05 07:04 28.37041 43.01495 34014 ft 439 kts 303°
2026-05-05 07:04 28.41200 42.96417 34026 ft 439 kts 303°
2026-05-05 07:05 28.45372 42.91311 34012 ft 439 kts 303°
2026-05-05 07:05 28.49524 42.86228 34027 ft 439 kts 303°
2026-05-05 07:06 28.53728 42.81070 34010 ft 442 kts 303°
2026-05-05 07:06 28.57905 42.75945 34008 ft 440 kts 303°
2026-05-05 07:07 28.62064 42.70831 34012 ft 442 kts 303°
2026-05-05 07:07 28.66235 42.65700 34012 ft 439 kts 302°
2026-05-05 07:08 28.70405 42.60556 34006 ft 443 kts 303°
2026-05-05 07:08 28.74574 42.55413 34005 ft 442 kts 303°
2026-05-05 07:09 28.78737 42.50269 34010 ft 442 kts 303°
2026-05-05 07:09 28.82912 42.45103 34008 ft 441 kts 303°
2026-05-05 07:10 28.87083 42.39935 34016 ft 441 kts 303°
2026-05-05 07:10 28.91216 42.34808 34025 ft 443 kts 302°
2026-05-05 07:11 28.95400 42.29612 34035 ft 441 kts 302°
2026-05-05 07:11 28.99574 42.24418 34040 ft 444 kts 302°
2026-05-05 07:12 29.03757 42.19211 34043 ft 443 kts 303°
2026-05-05 07:12 29.07915 42.14026 34040 ft 444 kts 303°
2026-05-05 07:13 29.12113 42.08783 34023 ft 446 kts 303°
2026-05-05 07:13 29.16298 42.03553 34023 ft 443 kts 303°
2026-05-05 07:14 29.20463 41.98338 34032 ft 445 kts 303°
2026-05-05 07:14 29.24634 41.93111 34022 ft 443 kts 303°
2026-05-05 07:15 29.28815 41.87861 34035 ft 444 kts 303°
2026-05-05 07:15 29.32982 41.82625 34019 ft 445 kts 303°
2026-05-05 07:16 29.37188 41.77331 34021 ft 446 kts 303°
2026-05-05 07:16 29.41346 41.72094 34031 ft 443 kts 303°
2026-05-05 07:17 29.45494 41.66860 34026 ft 442 kts 302°
2026-05-05 07:17 29.49666 41.61586 34027 ft 444 kts 303°
2026-05-05 07:18 29.53812 41.56345 34029 ft 441 kts 303°
2026-05-05 07:18 29.57941 41.51111 34021 ft 445 kts 303°
2026-05-05 07:19 29.62097 41.45842 34014 ft 441 kts 303°
2026-05-05 07:19 29.66240 41.40578 34019 ft 443 kts 303°
2026-05-05 07:20 29.70374 41.35322 34023 ft 443 kts 303°
2026-05-05 07:20 29.74575 41.30150 34030 ft 448 kts 307°
2026-05-05 07:21 29.79242 41.25347 34038 ft 451 kts 308°
2026-05-05 07:21 29.83933 41.20546 34031 ft 451 kts 308°
2026-05-05 07:22 29.88656 41.15699 34029 ft 452 kts 308°
2026-05-05 07:22 29.93343 41.10880 34028 ft 453 kts 308°
2026-05-05 07:23 29.98016 41.06068 34032 ft 451 kts 308°
2026-05-05 07:23 30.02713 41.01223 34030 ft 451 kts 308°
2026-05-05 07:24 30.07413 40.96368 34031 ft 450 kts 308°
2026-05-05 07:24 30.12070 40.91549 34019 ft 452 kts 308°
2026-05-05 07:25 30.16755 40.86699 34022 ft 450 kts 308°
2026-05-05 07:25 30.21441 40.81838 34019 ft 449 kts 308°
2026-05-05 07:26 30.26111 40.76988 34022 ft 452 kts 308°
2026-05-05 07:26 30.30765 40.72149 34021 ft 451 kts 307°
2026-05-05 07:27 30.35442 40.67278 34025 ft 452 kts 307°
2026-05-05 07:27 30.40124 40.62408 34022 ft 453 kts 308°
2026-05-05 07:28 30.44821 40.57610 34022 ft 450 kts 308°
2026-05-05 07:28 30.49521 40.52799 34019 ft 453 kts 308°
2026-05-05 07:29 30.54240 40.47961 34023 ft 451 kts 308°
2026-05-05 07:29 30.58970 40.43103 34021 ft 451 kts 308°
2026-05-05 07:30 30.63687 40.38252 34021 ft 451 kts 308°
2026-05-05 07:30 30.70733 40.30992 34044 ft 449 kts 307°
2026-05-05 07:31 30.75416 40.26158 34045 ft 449 kts 307°
2026-05-05 07:31 30.80083 40.21336 34046 ft 447 kts 307°
2026-05-05 07:32 30.84764 40.16488 34044 ft 450 kts 307°
2026-05-05 07:32 30.89444 40.11639 34045 ft 449 kts 307°
2026-05-05 07:33 30.94130 40.06776 34047 ft 448 kts 306°
2026-05-05 07:33 30.98801 40.01919 34048 ft 450 kts 307°
2026-05-05 07:34 31.03436 39.97098 34045 ft 447 kts 306°
2026-05-05 07:34 31.08105 39.92229 34046 ft 451 kts 307°
2026-05-05 07:35 31.12762 39.87373 34032 ft 448 kts 307°
2026-05-05 07:35 31.17425 39.82501 34030 ft 446 kts 307°
2026-05-05 07:36 31.22083 39.77622 34030 ft 450 kts 307°
2026-05-05 07:36 31.26724 39.72763 34029 ft 447 kts 306°
2026-05-05 07:37 31.31388 39.67865 34029 ft 452 kts 306°
2026-05-05 07:37 31.36046 39.62974 34030 ft 448 kts 306°
2026-05-05 07:38 31.40665 39.58113 34027 ft 448 kts 306°
2026-05-05 07:38 31.45339 39.53184 34027 ft 453 kts 307°
2026-05-05 07:39 31.49984 39.48286 34026 ft 450 kts 307°
2026-05-05 07:39 31.54611 39.43399 34027 ft 448 kts 307°
2026-05-05 07:40 31.59261 39.38477 33994 ft 448 kts 307°
2026-05-05 07:40 31.63909 39.33549 33982 ft 451 kts 306°
2026-05-05 07:41 31.68526 39.28652 34041 ft 450 kts 306°
2026-05-05 07:41 31.73197 39.23689 34040 ft 448 kts 306°
2026-05-05 07:42 31.77796 39.18794 34039 ft 450 kts 306°
2026-05-05 07:42 31.80278 39.16474 34036 ft 462 kts 314°
2026-05-05 07:42 31.83109 39.14554 34039 ft 473 kts 321°
2026-05-05 07:43 31.89052 39.11054 34041 ft 481 kts 322°
2026-05-05 07:43 31.95001 39.07566 34029 ft 474 kts 321°
2026-05-05 07:44 32.00897 39.04088 34030 ft 475 kts 321°
2026-05-05 07:44 32.06850 39.00576 34030 ft 480 kts 322°
2026-05-05 07:45 32.12809 38.97069 34017 ft 475 kts 321°
2026-05-05 07:45 32.18780 38.93541 34016 ft 483 kts 322°
2026-05-05 07:46 32.24757 38.90012 34005 ft 477 kts 322°
2026-05-05 07:46 32.30761 38.86454 34005 ft 479 kts 322°
2026-05-05 07:47 32.36750 38.82899 34013 ft 484 kts 322°
2026-05-05 07:47 32.42723 38.79355 34011 ft 478 kts 322°
2026-05-05 07:48 32.48705 38.75792 34012 ft 482 kts 322°
2026-05-05 07:48 32.54699 38.72223 34008 ft 481 kts 322°
2026-05-05 07:49 32.60688 38.68648 34011 ft 481 kts 322°
2026-05-05 07:49 32.66649 38.65087 34010 ft 480 kts 322°
2026-05-05 07:50 32.72659 38.61491 34007 ft 483 kts 322°
2026-05-05 07:50 32.78673 38.57890 34010 ft 480 kts 322°
2026-05-05 07:51 32.84590 38.54342 34006 ft 479 kts 322°
2026-05-05 07:51 32.90596 38.50731 34002 ft 480 kts 322°
2026-05-05 07:52 32.96551 38.47149 33998 ft 477 kts 322°
2026-05-05 07:52 33.02513 38.43551 34009 ft 481 kts 323°
2026-05-05 07:53 33.08465 38.39957 33996 ft 479 kts 323°
2026-05-05 07:53 33.14431 38.36347 33986 ft 481 kts 323°
2026-05-05 07:54 33.20347 38.32774 33996 ft 478 kts 323°
2026-05-05 07:54 33.26282 38.29166 33994 ft 477 kts 322°
2026-05-05 07:55 33.32225 38.25538 33992 ft 479 kts 323°
2026-05-05 07:55 33.38144 38.21921 33980 ft 477 kts 323°
2026-05-05 07:56 33.44080 38.18285 33971 ft 481 kts 323°
2026-05-05 07:56 33.50037 38.14658 33968 ft 479 kts 323°
2026-05-05 07:57 33.55949 38.11070 33965 ft 478 kts 323°
2026-05-05 07:57 33.61863 38.07474 33954 ft 475 kts 323°
2026-05-05 07:58 33.67784 38.03863 33954 ft 481 kts 323°
2026-05-05 07:58 33.73769 38.00215 33953 ft 476 kts 323°
2026-05-05 07:59 33.79679 37.96601 33949 ft 478 kts 323°
2026-05-05 07:59 33.85319 37.92587 33944 ft 464 kts 312°
2026-05-05 08:00 33.87674 37.90026 33943 ft 452 kts 304°
2026-05-05 08:00 33.89686 37.87114 33944 ft 447 kts 297°
2026-05-05 08:00 33.93019 37.80896 33945 ft 439 kts 294°
2026-05-05 08:01 33.96262 37.74696 33946 ft 440 kts 294°
2026-05-05 08:01 33.99493 37.68510 33942 ft 440 kts 294°
2026-05-05 08:02 34.02770 37.62223 33946 ft 440 kts 294°
2026-05-05 08:02 34.06002 37.56014 33949 ft 441 kts 294°
2026-05-05 08:03 34.09234 37.49794 33949 ft 438 kts 295°
2026-05-05 08:03 34.12470 37.43555 33943 ft 439 kts 295°
2026-05-05 08:04 34.15700 37.37316 33943 ft 439 kts 295°
2026-05-05 08:04 34.18926 37.31073 33962 ft 441 kts 294°
2026-05-05 08:05 34.22455 37.25001 33965 ft 448 kts 304°
2026-05-05 08:05 34.26763 37.19520 33966 ft 451 kts 306°
2026-05-05 08:06 34.31086 37.14062 33966 ft 451 kts 306°
2026-05-05 08:06 34.35417 37.08577 33959 ft 450 kts 306°
2026-05-05 08:07 34.39701 37.03139 33953 ft 450 kts 306°
2026-05-05 08:07 34.44034 36.97627 33948 ft 449 kts 306°
2026-05-05 08:08 34.48325 36.92162 33943 ft 449 kts 306°
2026-05-05 08:08 34.52653 36.86635 33948 ft 453 kts 306°
2026-05-05 08:09 34.56977 36.81109 33948 ft 451 kts 306°
2026-05-05 08:09 34.61296 36.75578 33947 ft 451 kts 306°
2026-05-05 08:10 34.65599 36.70061 33945 ft 449 kts 307°
2026-05-05 08:10 34.69888 36.64549 33944 ft 453 kts 307°
2026-05-05 08:11 34.74143 36.59076 33940 ft 449 kts 307°
2026-05-05 08:11 34.77600 36.54620 33943 ft 452 kts 307°
2026-05-05 08:12 34.82009 36.48930 33943 ft 451 kts 307°
2026-05-05 08:13 34.91233 36.36995 33935 ft 453 kts 307°
2026-05-05 08:13 34.95493 36.31466 33945 ft 457 kts 307°
2026-05-05 08:14 34.99646 36.26072 33935 ft 455 kts 307°
2026-05-05 08:14 35.04032 36.20363 33927 ft 458 kts 307°
2026-05-05 08:15 35.08353 36.14733 33937 ft 450 kts 307°
2026-05-05 08:15 35.12651 36.09116 33930 ft 457 kts 307°
2026-05-05 08:16 35.16929 36.03407 33934 ft 453 kts 303°
2026-05-05 08:16 35.19983 35.96819 33937 ft 444 kts 286°
2026-05-05 08:17 35.21227 35.89549 33940 ft 435 kts 270°
2026-05-05 08:17 35.20750 35.82512 33952 ft 433 kts 259°
2026-05-05 08:18 35.20038 35.75143 33935 ft 434 kts 269°
2026-05-05 08:18 35.21162 35.67882 33938 ft 443 kts 287°
2026-05-05 08:19 35.23912 35.61089 33931 ft 449 kts 294°
2026-05-05 08:19 35.26840 35.54362 33928 ft 447 kts 294°
2026-05-05 08:20 35.29770 35.47606 33920 ft 449 kts 294°
2026-05-05 08:20 35.32686 35.40863 33924 ft 448 kts 294°
2026-05-05 08:21 35.35546 35.34234 33917 ft 448 kts 294°
2026-05-05 08:21 35.38484 35.27409 33916 ft 448 kts 294°
2026-05-05 08:22 35.41361 35.20709 33932 ft 451 kts 294°
2026-05-05 08:22 35.44271 35.13923 33943 ft 450 kts 294°
2026-05-05 08:23 35.47185 35.07109 33927 ft 451 kts 294°
2026-05-05 08:23 35.49823 35.00929 33936 ft 451 kts 294°
2026-05-05 08:24 35.52536 34.94563 33932 ft 450 kts 295°
2026-05-05 08:24 35.55426 34.87768 33934 ft 449 kts 294°
2026-05-05 08:25 35.58312 34.80968 33938 ft 450 kts 295°
2026-05-05 08:25 35.61191 34.74169 33933 ft 448 kts 295°
2026-05-05 08:26 35.64069 34.67359 33930 ft 449 kts 295°
2026-05-05 08:26 35.66948 34.60534 33928 ft 450 kts 295°
2026-05-05 08:27 35.69804 34.53749 33932 ft 447 kts 295°
2026-05-05 08:27 35.72668 34.46932 33929 ft 449 kts 295°
2026-05-05 08:28 35.75532 34.40099 33918 ft 446 kts 296°
2026-05-05 08:28 35.78363 34.33332 33927 ft 449 kts 295°
2026-05-05 08:29 35.81215 34.26500 33925 ft 448 kts 295°
2026-05-05 08:30 35.85469 34.16283 33928 ft 445 kts 296°
2026-05-05 08:30 35.88293 34.09484 33930 ft 445 kts 296°
2026-05-05 08:31 35.91099 34.02709 33927 ft 444 kts 295°
2026-05-05 08:31 35.93516 33.95672 33944 ft 446 kts 292°
2026-05-05 08:32 35.95786 33.88757 33932 ft 442 kts 292°
2026-05-05 08:32 35.98093 33.81709 33925 ft 441 kts 292°
2026-05-05 08:33 36.00389 33.74683 33910 ft 442 kts 292°
2026-05-05 08:33 36.02702 33.67593 33958 ft 444 kts 292°
2026-05-05 08:34 36.05001 33.60525 33923 ft 440 kts 292°
2026-05-05 08:34 36.07274 33.53521 33950 ft 441 kts 292°
2026-05-05 08:35 36.09556 33.46475 33939 ft 439 kts 292°
2026-05-05 08:35 36.11823 33.39456 33955 ft 439 kts 292°
2026-05-05 08:36 36.13958 33.32834 33993 ft 439 kts 292°
2026-05-05 08:36 36.16245 33.25721 33967 ft 438 kts 292°
2026-05-05 08:37 36.18476 33.18769 33970 ft 439 kts 292°
2026-05-05 08:37 36.20701 33.11823 33994 ft 438 kts 292°
2026-05-05 08:38 36.22932 33.04836 33995 ft 437 kts 293°
2026-05-05 08:38 36.25165 32.97828 33958 ft 434 kts 293°
2026-05-05 08:39 36.27384 32.90849 33972 ft 437 kts 293°
2026-05-05 08:39 36.29580 32.83921 33963 ft 432 kts 293°
2026-05-05 08:40 36.31769 32.77005 33952 ft 433 kts 293°
2026-05-05 08:40 36.33973 32.70025 33953 ft 433 kts 294°
2026-05-05 08:41 36.36162 32.63114 33990 ft 432 kts 294°
2026-05-05 08:41 36.38355 32.56179 33978 ft 430 kts 294°
2026-05-05 08:42 36.40524 32.49300 34007 ft 433 kts 294°
2026-05-05 08:42 36.42703 32.42370 34007 ft 427 kts 294°
2026-05-05 08:43 36.44864 32.35487 33994 ft 431 kts 294°
2026-05-05 08:43 36.46996 32.28674 33992 ft 430 kts 294°
2026-05-05 08:44 36.49142 32.21799 33997 ft 425 kts 294°
2026-05-05 08:44 36.51302 32.14868 34002 ft 429 kts 294°
2026-05-05 08:45 36.53431 32.08018 34000 ft 425 kts 294°
2026-05-05 08:45 36.55565 32.01101 33986 ft 425 kts 294°
2026-05-05 08:46 36.57658 31.94280 34036 ft 425 kts 294°
2026-05-05 08:46 36.59774 31.87371 33995 ft 424 kts 294°
2026-05-05 08:47 36.61882 31.80472 34008 ft 427 kts 294°
2026-05-05 08:47 36.63980 31.73589 33993 ft 425 kts 295°
2026-05-05 08:48 36.66076 31.66697 33993 ft 427 kts 295°
2026-05-05 08:48 36.68185 31.59745 34000 ft 427 kts 295°
2026-05-05 08:49 36.70417 31.52915 34005 ft 426 kts 296°
2026-05-05 08:49 36.72704 31.46090 33974 ft 426 kts 297°
2026-05-05 08:50 36.74985 31.39242 33971 ft 426 kts 297°
2026-05-05 08:50 36.76738 31.33419 33983 ft 428 kts 294°
2026-05-05 08:51 36.78321 31.27847 33972 ft 429 kts 294°
2026-05-05 08:51 36.80843 31.18999 33965 ft 428 kts 294°
2026-05-05 08:52 36.82841 31.11994 33944 ft 428 kts 294°
2026-05-05 08:52 36.84830 31.05015 33956 ft 428 kts 294°
2026-05-05 08:53 36.86816 30.98032 33955 ft 427 kts 294°
2026-05-05 08:53 36.88801 30.91041 33965 ft 430 kts 294°
2026-05-05 08:54 36.90784 30.84038 33963 ft 429 kts 294°
2026-05-05 08:54 36.92990 30.77101 33966 ft 426 kts 301°
2026-05-05 08:55 36.95591 30.70492 33971 ft 425 kts 300°
2026-05-05 08:55 36.98217 30.63814 33984 ft 427 kts 300°
2026-05-05 08:56 37.00825 30.57158 33989 ft 426 kts 300°
2026-05-05 08:56 37.03429 30.50498 34000 ft 427 kts 300°
2026-05-05 08:57 37.06033 30.43819 34005 ft 426 kts 300°
2026-05-05 08:57 37.08630 30.37143 34011 ft 427 kts 300°
2026-05-05 08:58 37.11217 30.30480 34027 ft 428 kts 299°
2026-05-05 08:58 37.13812 30.23781 34042 ft 429 kts 299°
2026-05-05 08:59 37.16407 30.17067 34039 ft 429 kts 299°
2026-05-05 08:59 37.19003 30.10337 34037 ft 431 kts 299°
2026-05-05 09:00 37.21601 30.03584 34022 ft 429 kts 299°
2026-05-05 09:00 37.24239 29.96840 34016 ft 430 kts 300°
2026-05-05 09:01 37.26997 29.90151 34024 ft 432 kts 300°
2026-05-05 09:01 37.29745 29.83460 34028 ft 430 kts 300°
2026-05-05 09:02 37.32475 29.76785 34032 ft 430 kts 300°
2026-05-05 09:02 37.35185 29.70092 34030 ft 431 kts 299°
2026-05-05 09:03 37.37809 29.63275 34026 ft 433 kts 298°
2026-05-05 09:03 37.40427 29.56458 34028 ft 432 kts 298°
2026-05-05 09:04 37.43031 29.49675 34026 ft 433 kts 298°
2026-05-05 09:04 37.45652 29.42840 34022 ft 432 kts 298°
2026-05-05 09:05 37.48632 29.34822 34020 ft 434 kts 297°
2026-05-05 09:05 37.50745 29.29073 34025 ft 434 kts 297°
2026-05-05 09:06 37.53276 29.22184 34024 ft 433 kts 297°
2026-05-05 09:06 37.55819 29.15254 34026 ft 435 kts 297°
2026-05-05 09:07 37.58360 29.08314 34033 ft 436 kts 297°
2026-05-05 09:07 37.60894 29.01377 34033 ft 434 kts 297°
2026-05-05 09:08 37.63411 28.94472 34031 ft 435 kts 296°
2026-05-05 09:08 37.65951 28.87489 34036 ft 436 kts 296°
2026-05-05 09:09 37.68474 28.80537 34039 ft 436 kts 296°
2026-05-05 09:09 37.70984 28.73604 34043 ft 436 kts 296°
2026-05-05 09:10 37.73497 28.66612 34034 ft 436 kts 296°
2026-05-05 09:10 37.76388 28.58461 34027 ft 435 kts 296°
2026-05-05 09:11 37.78466 28.52591 34020 ft 437 kts 296°
2026-05-05 09:11 37.80936 28.45600 34028 ft 437 kts 296°
2026-05-05 09:12 37.83416 28.38565 34028 ft 438 kts 296°
2026-05-05 09:12 37.85892 28.31528 34039 ft 439 kts 295°
2026-05-05 09:13 37.88358 28.24500 34041 ft 438 kts 295°
2026-05-05 09:13 37.90823 28.17460 34053 ft 436 kts 295°
2026-05-05 09:14 37.93292 28.10393 34054 ft 437 kts 295°
2026-05-05 09:14 37.95735 28.03381 34067 ft 436 kts 295°
2026-05-05 09:15 37.98185 27.96335 34055 ft 438 kts 295°
2026-05-05 09:15 38.00602 27.89378 34052 ft 438 kts 296°
2026-05-05 09:16 38.03328 27.82700 34055 ft 437 kts 299°
2026-05-05 09:16 38.05871 27.75647 34057 ft 438 kts 296°
2026-05-05 09:17 38.08317 27.68605 34059 ft 439 kts 296°
2026-05-05 09:17 38.10762 27.61570 34065 ft 438 kts 296°
2026-05-05 09:18 38.13233 27.54454 34062 ft 439 kts 296°
2026-05-05 09:18 38.15680 27.47396 34066 ft 439 kts 296°
2026-05-05 09:19 38.18145 27.40276 34065 ft 439 kts 296°
2026-05-05 09:19 38.20581 27.33229 34068 ft 439 kts 295°
2026-05-05 09:20 38.23028 27.26136 34062 ft 439 kts 295°
2026-05-05 09:20 38.25473 27.19029 34062 ft 441 kts 295°
2026-05-05 09:21 38.27917 27.11907 34062 ft 440 kts 295°
2026-05-05 09:21 38.30364 27.04819 34055 ft 440 kts 298°
2026-05-05 09:22 38.33845 26.98523 34058 ft 437 kts 315°
2026-05-05 09:22 38.38353 26.93409 34062 ft 436 kts 319°
2026-05-05 09:23 38.42977 26.88310 34064 ft 436 kts 319°
2026-05-05 09:23 38.47502 26.83306 34061 ft 436 kts 319°
2026-05-05 09:24 38.52030 26.78288 34059 ft 435 kts 319°
2026-05-05 09:24 38.56608 26.73203 34056 ft 436 kts 319°
2026-05-05 09:25 38.61140 26.68160 34060 ft 436 kts 319°
2026-05-05 09:25 38.65713 26.63061 34057 ft 436 kts 319°
2026-05-05 09:26 38.70258 26.57986 34056 ft 435 kts 319°
2026-05-05 09:26 38.74786 26.52920 34064 ft 435 kts 319°
2026-05-05 09:27 38.79196 26.47978 34063 ft 434 kts 320°
2026-05-05 09:27 38.83569 26.42653 34056 ft 434 kts 310°
2026-05-05 09:28 38.86955 26.36525 34063 ft 436 kts 306°
2026-05-05 09:28 38.90362 26.30115 34069 ft 436 kts 306°
2026-05-05 09:29 38.93567 26.24070 34066 ft 437 kts 306°
2026-05-05 09:29 38.97068 26.17455 34071 ft 436 kts 306°
2026-05-05 09:30 39.00471 26.11011 34068 ft 436 kts 306°
2026-05-05 09:30 39.03874 26.04556 34065 ft 437 kts 306°
2026-05-05 09:31 39.07265 25.98109 34071 ft 435 kts 306°
2026-05-05 09:31 39.10623 25.91712 34071 ft 435 kts 306°
2026-05-05 09:32 39.14020 25.85228 34075 ft 435 kts 306°
2026-05-05 09:32 39.17411 25.78742 34076 ft 435 kts 306°
2026-05-05 09:33 39.20733 25.72376 34073 ft 435 kts 306°
2026-05-05 09:33 39.24067 25.65974 34075 ft 435 kts 306°
2026-05-05 09:34 39.27341 25.59675 34074 ft 435 kts 306°
2026-05-05 09:34 39.30723 25.53155 34076 ft 435 kts 306°
2026-05-05 09:35 39.34092 25.46646 34070 ft 434 kts 306°
2026-05-05 09:35 39.39110 25.36926 34071 ft 433 kts 306°
2026-05-05 09:36 39.42443 25.30455 34078 ft 434 kts 306°
2026-05-05 09:36 39.45762 25.23997 34074 ft 435 kts 306°
2026-05-05 09:37 39.49109 25.17471 34078 ft 434 kts 306°
2026-05-05 09:37 39.52465 25.10916 34073 ft 435 kts 306°
2026-05-05 09:38 39.55785 25.04416 34074 ft 435 kts 306°
2026-05-05 09:38 39.59124 24.97865 34077 ft 435 kts 306°
2026-05-05 09:39 39.62445 24.91336 34077 ft 434 kts 306°
2026-05-05 09:39 39.65750 24.84827 34073 ft 434 kts 306°
2026-05-05 09:40 39.69058 24.78297 34075 ft 435 kts 306°
2026-05-05 09:40 39.72386 24.71713 34072 ft 434 kts 306°
2026-05-05 09:41 39.75678 24.65188 34072 ft 434 kts 306°
2026-05-05 09:41 39.79001 24.58589 34069 ft 433 kts 306°
2026-05-05 09:42 39.82285 24.52051 34069 ft 434 kts 306°
2026-05-05 09:42 39.85596 24.45447 34068 ft 434 kts 306°
2026-05-05 09:43 39.88867 24.38910 34071 ft 434 kts 306°
2026-05-05 09:43 39.92155 24.32325 34072 ft 434 kts 306°
2026-05-05 09:44 39.95450 24.25712 34070 ft 433 kts 306°
2026-05-05 09:44 39.98732 24.19111 34071 ft 435 kts 306°
2026-05-05 09:45 40.01912 24.12701 34073 ft 433 kts 306°
2026-05-05 09:45 40.05160 24.06142 34066 ft 432 kts 306°
2026-05-05 09:46 40.08403 23.99578 34062 ft 432 kts 306°
2026-05-05 09:46 40.11642 23.93009 34074 ft 431 kts 306°
2026-05-05 09:47 40.14881 23.86427 34073 ft 433 kts 306°
2026-05-05 09:47 40.18097 23.79877 34070 ft 433 kts 306°
2026-05-05 09:48 40.21246 23.73451 34067 ft 433 kts 306°
2026-05-05 09:48 40.24421 23.66957 34073 ft 431 kts 306°
2026-05-05 09:49 40.27533 23.60580 34071 ft 431 kts 306°
2026-05-05 09:49 40.30767 23.53939 34070 ft 431 kts 306°
2026-05-05 09:50 40.33981 23.47325 34073 ft 432 kts 306°
2026-05-05 09:50 40.37174 23.40738 34077 ft 431 kts 306°
2026-05-05 09:51 40.40315 23.34248 34085 ft 431 kts 305°
2026-05-05 09:51 40.43549 23.27550 34097 ft 431 kts 305°
2026-05-05 09:52 40.46743 23.20921 34102 ft 430 kts 305°
2026-05-05 09:52 40.49900 23.14354 34095 ft 430 kts 305°
2026-05-05 09:53 40.52995 23.07903 34088 ft 429 kts 305°
2026-05-05 09:53 40.56175 23.01262 34075 ft 429 kts 305°
2026-05-05 09:54 40.59309 22.94701 34069 ft 431 kts 305°
2026-05-05 09:54 40.62495 22.88016 34070 ft 429 kts 305°
2026-05-05 09:55 40.65649 22.81387 34066 ft 429 kts 305°
2026-05-05 09:55 40.68791 22.74768 34065 ft 430 kts 305°
2026-05-05 09:56 40.71954 22.68090 34063 ft 428 kts 305°
2026-05-05 09:56 40.75074 22.61488 34059 ft 427 kts 305°
2026-05-05 09:57 40.78202 22.54856 34056 ft 428 kts 305°
2026-05-05 09:57 40.81255 22.48368 34054 ft 426 kts 305°
2026-05-05 09:58 40.84303 22.41879 34063 ft 427 kts 305°
2026-05-05 09:58 40.87316 22.35449 34078 ft 424 kts 305°
2026-05-05 09:59 40.90553 22.28525 34099 ft 424 kts 304°
2026-05-05 09:59 40.93598 22.22000 34112 ft 424 kts 304°
2026-05-05 10:00 40.96665 22.15413 34107 ft 424 kts 304°
2026-05-05 10:00 40.99754 22.08765 34100 ft 426 kts 304°
2026-05-05 10:01 41.02780 22.02238 34085 ft 425 kts 304°
2026-05-05 10:01 41.05815 21.95674 34089 ft 422 kts 304°
2026-05-05 10:02 41.08854 21.89022 34106 ft 423 kts 303°
2026-05-05 10:02 41.11740 21.82391 34157 ft 430 kts 303°
2026-05-05 10:03 41.13255 21.78908 34487 ft 435 kts 303°
2026-05-05 10:03 41.14759 21.75445 35112 ft 431 kts 302°
2026-05-05 10:03 41.16245 21.72024 35785 ft 425 kts 302°
2026-05-05 10:03 41.17721 21.68623 36251 ft 424 kts 302°
2026-05-05 10:04 41.19164 21.65299 36649 ft 425 kts 302°
2026-05-05 10:04 41.20610 21.61964 37055 ft 426 kts 302°
2026-05-05 10:04 41.22091 21.58544 37541 ft 425 kts 302°
2026-05-05 10:04 41.23555 21.55161 37972 ft 425 kts 302°
2026-05-05 10:05 41.25038 21.51730 38131 ft 428 kts 302°
2026-05-05 10:05 41.26514 21.48311 38131 ft 427 kts 302°
2026-05-05 10:05 41.29445 21.41512 38130 ft 425 kts 302°
2026-05-05 10:06 41.32372 21.34707 38130 ft 427 kts 301°
2026-05-05 10:06 41.35295 21.27894 38139 ft 425 kts 301°
2026-05-05 10:07 41.38222 21.21058 38142 ft 425 kts 301°
2026-05-05 10:07 41.41148 21.14209 38142 ft 427 kts 301°
2026-05-05 10:08 41.44051 21.07398 38148 ft 425 kts 301°
2026-05-05 10:08 41.46980 21.00509 38151 ft 424 kts 301°
2026-05-05 10:09 41.49865 20.93709 38145 ft 423 kts 301°
2026-05-05 10:09 41.52750 20.86895 38149 ft 425 kts 301°
2026-05-05 10:10 41.55656 20.80013 38157 ft 423 kts 301°
2026-05-05 10:10 41.58527 20.73199 38152 ft 423 kts 301°
2026-05-05 10:11 41.61418 20.66323 38146 ft 423 kts 301°
2026-05-05 10:11 41.64289 20.59478 38148 ft 424 kts 301°
2026-05-05 10:12 41.67213 20.52667 38145 ft 421 kts 305°
2026-05-05 10:12 41.70734 20.46381 38146 ft 421 kts 308°
2026-05-05 10:13 41.74278 20.40154 38147 ft 421 kts 308°
2026-05-05 10:13 41.77792 20.33954 38146 ft 420 kts 307°
2026-05-05 10:14 41.81350 20.27658 38144 ft 423 kts 307°
2026-05-05 10:14 41.84865 20.21423 38144 ft 421 kts 307°
2026-05-05 10:15 41.88406 20.15127 38140 ft 422 kts 307°
2026-05-05 10:15 41.91946 20.08819 38145 ft 422 kts 307°
2026-05-05 10:16 41.95459 20.02545 38150 ft 420 kts 306°
2026-05-05 10:16 41.98955 19.96290 38141 ft 420 kts 306°
2026-05-05 10:17 42.02443 19.90035 38124 ft 420 kts 306°
2026-05-05 10:17 42.05969 19.83700 38119 ft 422 kts 306°
2026-05-05 10:18 42.09443 19.77443 38124 ft 421 kts 306°
2026-05-05 10:18 42.12939 19.71134 38134 ft 422 kts 306°
2026-05-05 10:19 42.16441 19.64801 38128 ft 424 kts 306°
2026-05-05 10:19 42.19951 19.58441 38119 ft 422 kts 306°
2026-05-05 10:20 42.21019 19.56503 38121 ft 424 kts 306°